FW6002 Weather Reports


time (UTC)temp
C
wind
direction
speed
KPH
gust
KPH
rain 1hr
cm
rain 24hr
cm
rain mn
cm
humidity
%
barometer
mb
20260904052555 26 54 1.6 11.3 0.00 0.00 0.00 83 1012.4
20260904052056 26 125 3.2 11.3 0.00 0.00 0.00 83 1012.5
20260904051609 26 46 1.6 9.7 0.00 0.00 0.00 82 1012.4
20260904051054 26 42 3.2 9.7 0.00 0.00 0.00 82 1012.4
20260904050554 26 75 1.6 8.0 0.00 0.00 0.00 82 1012.5
20260904050109 26 65 1.6 8.0 0.00 0.00 0.00 82 1012.8
20260904045554 26 0 1.6 8.0 0.00 0.00 0.00 82 1012.7
20260904045054 26 185 3.2 8.0 0.00 0.00 0.00 82 1012.5
20260904044605 26 67 3.2 8.0 0.00 0.00 0.00 82 1012.7
20260904044056 26 76 1.6 8.0 0.00 0.00 0.00 82 1012.7
20260904043556 26 72 1.6 6.4 0.00 0.00 0.00 82 1012.7
20260904043124 26 228 1.6 6.4 0.00 0.00 0.00 82 1012.7
20260904042555 26 131 1.6 6.4 0.00 0.00 0.00 81 1012.7
20260904042057 26 137 1.6 6.4 0.00 0.00 0.00 81 1012.5
20260904041609 26 161 1.6 8.0 0.00 0.00 0.00 81 1012.3
20260904041054 26 115 1.6 9.7 0.00 0.00 0.00 81 1012.3
20260904040555 26 0 1.6 11.3 0.00 0.00 0.00 80 1012.2
20260904040110 26 80 1.6 11.3 0.00 0.00 0.00 80 1012.4
20260904035554 26 187 1.6 9.7 0.00 0.00 0.00 80 1012.5
20260904035054 27 141 1.6 9.7 0.00 0.00 0.00 79 1012.6
20260904034605 27 227 1.6 6.4 0.00 0.00 0.00 79 1012.5
20260904034054 27 145 1.6 6.4 0.00 0.00 0.00 78 1012.7
20260904033556 27 82 1.6 9.7 0.00 0.00 0.00 78 1012.7
20260904033108 27 65 1.6 9.7 0.00 0.00 0.00 78 1012.6
20260904032554 27 176 1.6 9.7 0.00 0.00 0.00 77 1012.6
20260904032055 27 183 1.6 9.7 0.00 0.00 0.00 77 1012.5
20260904031604 27 58 1.6 8.0 0.00 0.00 0.00 76 1012.4
20260904031054 27 185 3.2 8.0 0.00 0.00 0.00 76 1012.3
20260904030554 27 0 3.2 8.0 0.00 0.00 0.00 76 1012.4
20260904030106 27 0 3.2 9.7 0.00 0.00 0.00 75 1012.3
20260904025554 27 75 3.2 9.7 0.00 0.00 0.00 75 1012.2
20260904025054 27 211 1.6 8.0 0.00 0.00 0.00 74 1012.2
20260904024605 27 211 3.2 8.0 0.00 0.00 0.00 74 1012.0
20260904024056 27 207 1.6 6.4 0.00 0.00 0.00 73 1011.9
20260904023553 28 178 3.2 9.7 0.00 0.00 0.00 73 1011.9
20260904023105 28 153 1.6 9.7 0.00 0.00 0.00 73 1011.9
20260904022556 28 131 1.6 11.3 0.00 0.00 0.00 72 1011.8
20260904022054 28 153 1.6 11.3 0.00 0.00 0.00 72 1011.7
20260904021607 28 104 3.2 11.3 0.00 0.00 0.00 71 1011.6
20260904021054 28 158 1.6 8.0 0.00 0.00 0.00 71 1011.5
20260904020554 28 79 3.2 9.7 0.00 0.00 0.00 70 1011.5
20260904020106 28 118 1.6 9.7 0.00 0.00 0.00 70 1011.3
20260904015555 28 106 3.2 11.3 0.00 0.00 0.00 69 1011.3
20260904015056 28 78 3.2 11.3 0.00 0.00 0.00 69 1011.3
20260904014645 28 126 3.2 11.3 0.00 0.00 0.00 69 1011.2
20260904014056 28 76 1.6 11.3 0.00 0.00 0.00 68 1011.3
20260904013559 28 109 1.6 9.7 0.00 0.00 0.00 68 1011.2
20260904013105 29 0 1.6 9.7 0.00 0.00 0.00 68 1011.2
20260904012556 29 137 3.2 11.3 0.00 0.00 0.00 67 1011.2
20260904012055 29 196 3.2 12.9 0.00 0.00 0.00 67 1011.1
20260904011608 29 119 3.2 12.9 0.00 0.00 0.00 66 1010.9
20260904011059 30 68 3.2 12.9 0.00 0.00 0.00 66 1010.9
20260904010555 30 67 3.2 9.7 0.00 0.00 0.00 66 1010.8
20260904010107 30 88 3.2 12.9 0.00 0.00 0.00 65 1010.8
20260904005556 30 14 3.2 12.9 0.00 0.00 0.00 65 1010.7
20260904005055 30 29 3.2 12.9 0.00 0.00 0.00 64 1010.7
20260904004605 30 205 3.2 12.9 0.00 0.00 0.00 64 1010.6
20260904004056 30 54 4.8 14.5 0.00 0.00 0.00 64 1010.5
20260904003555 31 53 3.2 14.5 0.00 0.00 0.00 65 1010.4
20260904003113 31 70 4.8 14.5 0.00 0.00 0.00 65 1010.6
20260904002556 31 62 3.2 14.5 0.00 0.00 0.00 65 1010.5
20260904002058 31 96 3.2 12.9 0.00 0.00 0.00 65 1010.6
20260904001610 31 188 3.2 11.3 0.00 0.00 0.00 65 1010.4
20260904001055 31 131 3.2 11.3 0.00 0.00 0.00 65 1010.5
20260904000557 31 157 3.2 12.9 0.00 0.00 0.00 65 1010.4
20260904000141 32 52 3.2 12.9 0.00 0.00 0.00 65 1010.4
20260903235555 32 134 4.8 14.5 0.00 0.00 0.00 65 1010.5
20260903235055 32 59 1.6 14.5 0.00 0.00 0.00 65 1010.6
20260903234604 32 121 4.8 17.7 0.00 0.00 0.00 64 1010.4
20260903234056 32 24 3.2 17.7 0.00 0.00 0.00 64 1010.2
20260903233559 32 212 3.2 14.5 0.00 0.00 0.00 64 1010.3
20260903233103 32 180 3.2 16.1 0.00 0.00 0.00 65 1010.1
20260903232556 32 171 4.8 16.1 0.00 0.00 0.00 64 1010.1
20260903232100 32 303 3.2 11.3 0.00 0.00 0.00 64 1010.1
20260903231623 32 151 3.2 11.3 0.00 0.00 0.00 64 1010.0
20260903231056 32 74 3.2 12.9 0.00 0.00 0.00 64 1010.0
20260903230555 32 116 4.8 14.5 0.00 0.00 0.00 64 1010.0
20260903230108 32 171 4.8 14.5 0.00 0.00 0.00 64 1010.0
20260903225558 33 80 1.6 11.3 0.00 0.00 0.00 64 1009.9
20260903225055 33 155 3.2 11.3 0.00 0.00 0.00 63 1010.0
20260903224602 33 175 3.2 16.1 0.00 0.00 0.00 64 1009.9
20260903224058 33 111 4.8 16.1 0.00 0.00 0.00 63 1010.0
20260903223554 33 134 1.6 11.3 0.00 0.00 0.00 64 1010.1
20260903223117 33 53 3.2 11.3 0.00 0.00 0.00 64 1010.1
20260903222557 33 60 1.6 9.7 0.00 0.00 0.00 63 1010.0
20260903222055 33 55 3.2 14.5 0.00 0.00 0.00 63 1010.0
20260903221606 33 128 3.2 14.5 0.00 0.00 0.00 63 1010.1
20260903221054 33 159 1.6 11.3 0.00 0.00 0.00 63 1010.1
20260903220555 33 49 4.8 11.3 0.00 0.00 0.00 62 1010.0
20260903220115 34 38 3.2 11.3 0.00 0.00 0.00 61 1010.1
20260903215556 34 225 4.8 19.3 0.00 0.00 0.00 61 1010.0
20260903215054 34 113 4.8 19.3 0.00 0.00 0.00 61 1009.9
20260903214606 34 200 1.6 12.9 0.00 0.00 0.00 61 1010.0
20260903214054 34 69 3.2 14.5 0.00 0.00 0.00 61 1010.0
20260903213554 34 155 3.2 14.5 0.00 0.00 0.00 60 1009.9
20260903213105 35 159 3.2 9.7 0.00 0.00 0.00 60 1010.0
20260903212556 35 239 3.2 11.3 0.00 0.00 0.00 60 1010.1
20260903212055 35 181 3.2 11.3 0.00 0.00 0.00 60 1010.1
20260903211602 35 212 3.2 11.3 0.00 0.00 0.00 60 1009.9
20260903211054 35 44 3.2 11.3 0.00 0.00 0.00 58 1010.0
20260903210554 35 78 3.2 9.7 0.00 0.00 0.00 59 1010.1
20260903210105 35 223 1.6 14.5 0.00 0.00 0.00 61 1010.1
20260903205555 35 143 3.2 14.5 0.00 0.00 0.00 61 1010.2
20260903205054 34 89 3.2 12.9 0.00 0.00 0.00 61 1010.2
20260903204608 35 346 4.8 12.9 0.00 0.00 0.00 61 1010.3
20260903204054 35 59 4.8 16.1 0.00 0.00 0.00 61 1010.5
20260903203600 34 67 4.8 16.1 0.00 0.00 0.00 61 1010.2
20260903203106 35 203 1.6 12.9 0.00 0.00 0.00 61 1010.5
20260903202557 35 49 3.2 12.9 0.00 0.00 0.00 62 1010.6
20260903202054 35 47 3.2 14.5 0.00 0.00 0.00 62 1010.7
20260903201607 34 277 4.8 14.5 0.00 0.00 0.00 62 1010.8
20260903201054 34 71 4.8 20.9 0.00 0.00 0.00 62 1010.9
20260903200555 34 99 4.8 20.9 0.00 0.00 0.00 61 1010.7
20260903200104 34 98 4.8 17.7 0.00 0.00 0.00 62 1011.0
20260903195557 34 352 4.8 14.5 0.00 0.00 0.00 62 1010.9
20260903195054 34 46 4.8 16.1 0.00 0.00 0.00 63 1011.1
20260903194602 34 55 4.8 16.1 0.00 0.00 0.00 63 1011.1
20260903194055 33 106 6.4 16.1 0.00 0.00 0.00 64 1011.2
20260903193554 33 143 4.8 12.9 0.00 0.00 0.00 64 1011.2
20260903193059 33 203 4.8 12.9 0.00 0.00 0.00 64 1011.3
20260903192554 33 54 4.8 14.5 0.00 0.00 0.00 65 1011.3
20260903192054 33 36 4.8 14.5 0.00 0.00 0.00 66 1011.5
20260903191606 32 146 3.2 12.9 0.00 0.00 0.00 67 1011.4
20260903191055 32 91 4.8 12.9 0.00 0.00 0.00 69 1011.5
20260903190555 32 11 4.8 12.9 0.00 0.00 0.00 68 1011.7
20260903190107 32 115 3.2 9.7 0.00 0.00 0.00 68 1011.8
20260903185554 32 182 3.2 9.7 0.00 0.00 0.00 69 1011.8
20260903185054 32 68 1.6 9.7 0.00 0.00 0.00 69 1012.0
20260903184604 31 164 1.6 9.7 0.00 0.00 0.00 69 1012.1
20260903184058 31 147 3.2 9.7 0.00 0.00 0.00 70 1012.2
20260903183555 31 186 3.2 9.7 0.00 0.00 0.00 70 1012.2
20260903183106 31 149 3.2 11.3 0.00 0.00 0.00 70 1012.3
20260903182554 31 150 3.2 12.9 0.00 0.00 0.00 70 1012.4
20260903182054 31 38 3.2 12.9 0.00 0.00 0.00 69 1012.3
20260903181604 31 49 3.2 14.5 0.00 0.00 0.00 68 1012.4
20260903181057 32 137 3.2 14.5 0.00 0.00 0.00 67 1012.5
20260903180555 32 211 3.2 12.9 0.00 0.00 0.00 67 1012.5
20260903175554 32 147 4.8 12.9 0.00 0.00 0.00 67 1012.7
20260903175054 32 360 1.6 14.5 0.00 0.00 0.00 66 1012.7
20260903174601 32 134 3.2 14.5 0.00 0.00 0.00 65 1012.7
20260903174054 32 98 3.2 14.5 0.00 0.00 0.00 65 1012.7
20260903173554 32 109 3.2 9.7 0.00 0.00 0.00 65 1012.9
20260903173109 32 129 3.2 9.7 0.00 0.00 0.00 64 1012.9
20260903172554 32 202 3.2 9.7 0.00 0.00 0.00 65 1013.0
20260903172057 32 171 1.6 9.7 0.00 0.00 0.00 65 1013.0
20260903171611 32 259 3.2 9.7 0.00 0.00 0.00 65 1013.0
20260903171056 32 0 1.6 9.7 0.00 0.00 0.00 65 1013.1
20260903170557 32 130 1.6 8.0 0.00 0.00 0.00 66 1013.0
20260903170110 31 71 3.2 8.0 0.00 0.00 0.00 65 1013.0
20260903165554 31 100 3.2 8.0 0.00 0.00 0.00 66 1013.0
20260903165054 32 63 1.6 8.0 0.00 0.00 0.00 66 1013.0
20260903164608 31 34 1.6 9.7 0.00 0.00 0.00 67 1013.2
20260903164055 31 82 3.2 9.7 0.00 0.00 0.00 69 1013.3
20260903163556 31 51 1.6 6.4 0.00 0.00 0.00 68 1013.2
20260903163114 31 275 1.6 6.4 0.00 0.00 0.00 69 1013.2
20260903162558 31 68 1.6 8.0 0.00 0.00 0.00 68 1013.4
20260903162057 31 168 1.6 8.0 0.00 0.00 0.00 69 1013.4
20260903161612 30 230 1.6 8.0 0.00 0.00 0.00 70 1013.5
20260903161056 30 202 1.6 11.3 0.00 0.00 0.00 69 1013.4
20260903160557 31 184 1.6 11.3 0.00 0.00 0.00 70 1013.3
20260903160108 30 24 1.6 6.4 0.00 0.00 0.00 70 1013.1
20260903155556 30 206 1.6 6.4 0.00 0.00 0.00 71 1013.2
20260903155058 30 0 1.6 9.7 0.00 0.00 0.00 71 1013.3
20260903154608 30 58 1.6 11.3 0.00 0.00 0.00 71 1013.3
20260903154057 30 104 3.2 11.3 0.00 0.00 0.00 72 1013.2
20260903153557 29 70 1.6 8.0 0.00 0.00 0.00 73 1013.2
20260903153104 29 241 3.2 8.0 0.00 0.00 0.00 73 1013.3
20260903152555 29 74 3.2 8.0 0.00 0.00 0.00 73 1013.1
20260903152051 29 53 0.0 6.4 0.00 0.00 0.00 74 1013.0
20260903151604 29 107 1.6 6.4 0.00 0.00 0.00 74 1013.0
20260903151055 29 0 1.6 6.4 0.00 0.00 0.00 74 1013.0
20260903150555 29 36 1.6 8.0 0.00 0.00 0.00 74 1013.2
20260903150118 29 49 1.6 11.3 0.00 0.00 0.00 73 1013.0
20260903145552 29 0 3.2 11.3 0.00 0.00 0.00 73 1013.1
20260903145052 29 232 1.6 9.7 0.00 0.00 0.00 73 1013.0
20260903144603 29 69 3.2 9.7 0.00 0.00 0.00 73 1013.1
20260903144053 29 128 1.6 8.0 0.00 0.00 0.00 75 1012.9
20260903143552 28 63 1.6 6.4 0.00 0.00 0.00 75 1012.9
20260903143104 28 159 1.6 4.8 0.00 0.00 0.00 76 1012.9
20260903142552 28 60 1.6 6.4 0.00 0.00 0.00 77 1013.0
20260903142059 28 69 3.2 6.4 0.00 0.00 0.00 76 1012.9
20260903141605 28 49 1.6 6.4 0.00 0.00 0.00 77 1012.9
20260903141058 28 243 1.6 6.4 0.00 0.00 0.00 78 1013.1
20260903140552 27 76 0.0 8.0 0.00 0.00 0.00 80 1013.0
20260903140106 27 0 1.6 8.0 0.00 0.00 0.00 81 1013.0
20260903135555 26 50 1.6 11.3 0.00 0.00 0.00 81 1013.1
20260903135052 26 130 1.6 11.3 0.00 0.00 0.00 81 1013.0
20260903134559 26 18 3.2 9.7 0.00 0.00 0.00 80 1013.1
20260903134053 26 228 1.6 8.0 0.00 0.00 0.00 82 1013.1
20260903133552 26 57 1.6 4.8 0.00 0.00 0.00 83 1013.0
20260903133102 26 57 1.6 4.8 0.00 0.00 0.00 84 1012.9
20260903132552 25 53 1.6 4.8 0.00 0.00 0.00 84 1013.0
20260903132055 25 173 1.6 4.8 0.00 0.00 0.00 84 1013.0
20260903131605 25 36 1.6 6.4 0.00 0.00 0.00 85 1013.1
20260903131054 25 0 0.0 6.4 0.00 0.00 0.00 86 1013.0
20260903130554 25 248 0.0 3.2 0.00 0.00 0.00 86 1013.0
20260903130111 24 0 0.0 3.2 0.00 0.00 0.00 87 1013.0
20260903125555 24 213 0.0 3.2 0.00 0.00 0.00 87 1012.9
20260903125056 24 0 0.0 3.2 0.00 0.00 0.00 87 1012.9
20260903124605 24 0 0.0 4.8 0.00 0.00 0.00 87 1013.0
20260903124054 23 0 0.0 4.8 0.00 0.00 0.00 88 1013.0
20260903123554 23 0 0.0 1.6 0.00 0.00 0.00 88 1013.0
20260903123100 23 0 0.0 1.6 0.00 0.00 0.00 87 1013.0
20260903122629 23 0 0.0 1.6 0.00 0.00 0.00 87 1012.8
20260903122055 23 185 0.0 1.6 0.00 0.00 0.00 87 1012.8
20260903121601 23 0 0.0 1.6 0.00 0.00 0.00 87 1012.7
20260903121055 23 0 0.0 1.6 0.00 0.00 0.00 87 1012.7
20260903120555 23 172 0.0 3.2 0.00 0.00 0.00 87 1012.6
20260903115555 23 0 0.0 3.2 0.00 0.00 0.00 87 1012.7
20260903115054 23 169 0.0 3.2 0.00 0.00 0.00 87 1012.7
20260903114618 23 173 0.0 1.6 0.00 0.00 0.00 87 1012.5
20260903114055 23 0 0.0 3.2 0.00 0.00 0.00 87 1012.3
20260903113555 23 0 0.0 3.2 0.00 0.00 0.00 86 1012.3
20260903113106 23 187 0.0 3.2 0.00 0.00 0.00 86 1012.3
20260903112555 23 0 0.0 1.6 0.00 0.00 0.00 86 1012.2
20260903112055 23 0 0.0 3.2 0.00 0.00 0.00 86 1012.3
20260903111617 23 0 0.0 3.2 0.00 0.00 0.00 86 1012.3
20260903111058 23 0 0.0 1.6 0.00 0.00 0.00 86 1012.3
20260903110555 23 0 0.0 1.6 0.00 0.00 0.00 86 1012.3
20260903105557 23 162 0.0 3.2 0.00 0.00 0.00 85 1012.3
20260903105057 23 162 0.0 3.2 0.00 0.00 0.00 85 1012.2
20260903104620 23 0 0.0 3.2 0.00 0.00 0.00 85 1012.1
20260903104055 23 0 0.0 3.2 0.00 0.00 0.00 85 1012.2
20260903103553 23 0 0.0 3.2 0.00 0.00 0.00 85 1012.2
20260903103122 23 0 0.0 1.6 0.00 0.00 0.00 85 1012.2
20260903102555 23 0 0.0 1.6 0.00 0.00 0.00 85 1012.2
20260903102055 23 0 0.0 3.2 0.00 0.00 0.00 85 1012.3
20260903101607 23 0 0.0 3.2 0.00 0.00 0.00 85 1012.3
20260903101055 23 0 0.0 3.2 0.00 0.00 0.00 85 1012.1
20260903100600 23 0 0.0 4.8 0.00 0.00 0.00 85 1012.2
20260903095554 23 172 0.0 3.2 0.00 0.00 0.00 85 1012.1
20260903095056 23 0 0.0 1.6 0.00 0.00 0.00 85 1012.2
20260903094608 23 0 0.0 1.6 0.00 0.00 0.00 85 1011.9
20260903094056 23 0 0.0 0.0 0.00 0.00 0.00 85 1012.0
20260903093555 23 0 0.0 0.0 0.00 0.00 0.00 85 1011.9
20260903093129 23 0 0.0 0.0 0.00 0.00 0.00 84 1011.9
20260903092555 23 0 0.0 0.0 0.00 0.00 0.00 84 1011.9
20260903092055 23 0 0.0 0.0 0.00 0.00 0.00 84 1012.0
20260903091604 23 0 0.0 0.0 0.00 0.00 0.00 84 1012.1
20260903091054 23 0 0.0 0.0 0.00 0.00 0.00 84 1012.0
20260903090557 23 0 0.0 0.0 0.00 0.00 0.00 83 1012.2
20260903090108 23 0 0.0 0.0 0.00 0.00 0.00 83 1012.1
20260903085555 23 0 0.0 0.0 0.00 0.00 0.00 83 1012.2
20260903085056 23 0 0.0 0.0 0.00 0.00 0.00 83 1012.2
20260903084603 23 0 0.0 0.0 0.00 0.00 0.00 82 1012.2
20260903084056 24 0 0.0 0.0 0.00 0.00 0.00 82 1012.3
20260903083557 24 0 0.0 0.0 0.00 0.00 0.00 82 1012.2
20260903083109 24 0 0.0 0.0 0.00 0.00 0.00 82 1012.4
20260903082555 24 0 0.0 0.0 0.00 0.00 0.00 81 1012.3
20260903082055 24 0 0.0 0.0 0.00 0.00 0.00 82 1012.4
20260903081602 24 0 0.0 0.0 0.00 0.00 0.00 81 1012.3
20260903081056 24 0 0.0 0.0 0.00 0.00 0.00 81 1012.2
20260903080559 24 0 0.0 0.0 0.00 0.00 0.00 81 1012.5
20260903080104 24 0 0.0 0.0 0.00 0.00 0.00 81 1012.5
20260903075555 25 0 0.0 0.0 0.00 0.00 0.00 81 1012.4
20260903075059 25 0 0.0 0.0 0.00 0.00 0.00 80 1012.7
20260903074611 25 0 0.0 0.0 0.00 0.00 0.00 80 1012.8
20260903074056 25 0 0.0 0.0 0.00 0.00 0.00 79 1012.8
20260903073559 25 0 0.0 0.0 0.00 0.00 0.00 79 1012.6
20260903073107 25 0 0.0 0.0 0.00 0.00 0.00 78 1012.7
20260903072556 25 0 0.0 1.6 0.00 0.00 0.00 78 1012.4
20260903072055 26 0 0.0 3.2 0.00 0.00 0.00 77 1012.7
20260903071632 26 0 0.0 3.2 0.00 0.00 0.00 77 1012.9
20260903071054 26 0 0.0 1.6 0.00 0.00 0.00 77 1012.8
20260903070554 26 0 0.0 3.2 0.00 0.00 0.00 77 1012.8
20260903070108 26 0 0.0 3.2 0.00 0.00 0.00 77 1012.9
20260903065556 26 0 0.0 3.2 0.00 0.00 0.00 77 1012.8
20260903065054 26 0 0.0 3.2 0.00 0.00 0.00 76 1013.0
20260903064608 26 0 0.0 3.2 0.00 0.00 0.00 76 1013.0
20260903064054 26 223 0.0 4.8 0.00 0.00 0.00 76 1013.0
20260903063555 26 152 0.0 4.8 0.00 0.00 0.00 76 1012.9
20260903063107 26 135 0.0 3.2 0.00 0.00 0.00 75 1013.0
20260903062557 26 177 0.0 3.2 0.00 0.00 0.00 75 1013.0
20260903062056 26 166 0.0 4.8 0.00 0.00 0.00 75 1013.0
20260903061611 26 186 0.0 4.8 0.00 0.00 0.00 74 1012.8
20260903061054 27 197 0.0 4.8 0.00 0.00 0.00 74 1013.0
20260903060555 27 0 0.0 6.4 0.00 0.00 0.00 74 1013.0
20260903060109 27 114 0.0 6.4 0.00 0.00 0.00 74 1013.2
20260903055555 27 0 0.0 6.4 0.00 0.00 0.00 73 1013.2
20260903055054 27 91 1.6 6.4 0.00 0.00 0.00 73 1013.3
20260903054607 27 202 1.6 4.8 0.00 0.00 0.00 72 1013.3
20260903054055 27 208 1.6 4.8 0.00 0.00 0.00 72 1013.2
20260903053558 27 0 0.0 6.4 0.00 0.00 0.00 71 1013.2
20260903053103 27 59 1.6 6.4 0.00 0.00 0.00 71 1013.3